sat.trackr.live / text

‹ back to catalog

STARLINK-30141

NORAD 57620 · 2023-119U

PAYLOAD ACTIVE UNKNOWN

§ Identity

Operator
Country
US
Launch date
2023-08-11
Launch site
AFETR
Launch vehicle
Mass (kg)
RCS (m²)

Purposes: comms

External: N2YO · Heavens-Above · Gunter

§ Orbital elements

Epoch: 2026-05-25T00:50:12.653088Z

Period
94.27 min
Inclination
43.0013°
Eccentricity
0.0001105
Mean motion
15.27566658 rev/d
Perigee alt
482.3 km
Apogee alt
483.8 km
Semi-major
6,861.2 km
B*
3.9616e-4
RAAN
10.3162°
Arg perigee
266.8879°
Mean anomaly
93.1847°
Rev number
15,476

§ Raw data

STARLINK-301411 57620U 23119U   26145.03486867  .00010651  00000+0  39616-3 0  99962 57620  43.0013  10.3162 0001105 266.8879  93.1847 15.27566658154765

JSON: /api/v1/satellites/57620 · /tle

For live sub-satellite position, see the globe view (requires WebGL).

§ Visibility from observer

Set your observer location to see the next 7 days of passes ≥ 10°. The values pass through the URL so the page stays shareable.

No JS? Fill the form by hand. The geolocation button needs JavaScript.